TimeCDT,TemperatureF,Dew PointF,Humidity,Sea Level PressureIn,VisibilityMPH,Wind Direction,Wind SpeedMPH,Gust SpeedMPH,PrecipitationIn,Events,Conditions,WindDirDegrees,DateUTC
12:53 AM,59.0,57.0,93,29.70,10.0,NNE,15.0,-,0.01,,Overcast,20,2012-10-01 05:53:00
1:53 AM,61.0,57.9,90,29.68,10.0,North,10.4,-,N/A,,Overcast,10,2012-10-01 06:53:00
2:53 AM,61.0,57.0,87,29.67,10.0,North,16.1,23.0,N/A,,Overcast,10,2012-10-01 07:53:00
3:53 AM,62.1,57.0,84,29.65,10.0,North,12.7,-,N/A,,Overcast,360,2012-10-01 08:53:00
4:23 AM,60.8,59.0,94,29.66,7.0,North,10.4,-,N/A,,Overcast,360,2012-10-01 09:23:00
4:53 AM,62.1,60.1,93,29.65,4.0,North,11.5,-,N/A,,Overcast,360,2012-10-01 09:53:00
5:20 AM,62.6,60.8,94,29.65,4.0,North,12.7,18.4,0.03,,Overcast,10,2012-10-01 10:20:00
5:28 AM,62.6,60.8,94,29.65,4.0,North,12.7,19.6,0.03,,Overcast,10,2012-10-01 10:28:00
5:32 AM,62.6,60.8,94,29.65,4.0,North,9.2,19.6,0.03,,Overcast,10,2012-10-01 10:32:00
5:51 AM,62.6,60.8,94,29.65,8.0,North,13.8,-,0.03,,Overcast,360,2012-10-01 10:51:00
5:53 AM,62.1,60.1,93,29.65,8.0,North,13.8,-,0.03,,Overcast,360,2012-10-01 10:53:00
6:53 AM,61.0,59.0,93,29.66,9.0,North,10.4,19.6,0.01,,Overcast,350,2012-10-01 11:53:00
7:39 AM,60.8,59.0,94,29.67,3.0,NNW,12.7,19.6,0.07,Rain,Heavy Rain,330,2012-10-01 12:39:00
7:47 AM,60.8,59.0,94,29.67,3.0,NNW,11.5,-,0.10,Rain,Heavy Rain,340,2012-10-01 12:47:00
7:53 AM,61.0,59.0,93,29.68,2.5,NNW,12.7,-,0.11,Rain,Rain,330,2012-10-01 12:53:00
7:57 AM,60.8,59.0,94,29.68,3.0,NNW,13.8,20.7,0.00,Rain,Rain,340,2012-10-01 12:57:00
8:20 AM,60.8,57.2,88,29.68,3.0,North,11.5,-,0.03,Rain,Heavy Rain,360,2012-10-01 13:20:00
8:53 AM,60.1,59.0,96,29.69,5.0,North,8.1,-,0.09,Rain,Light Rain,360,2012-10-01 13:53:00
9:29 AM,60.8,57.2,88,29.69,6.0,NNW,13.8,20.7,0.02,Rain,Rain,340,2012-10-01 14:29:00
9:53 AM,60.1,57.9,93,29.70,9.0,North,10.4,-,0.06,Rain,Light Rain,350,2012-10-01 14:53:00
10:53 AM,59.0,57.0,93,29.70,5.0,NNW,13.8,-,0.07,Rain,Rain,340,2012-10-01 15:53:00
11:53 AM,63.0,57.0,81,29.69,10.0,NNW,12.7,19.6,0.03,,Mostly Cloudy,340,2012-10-01 16:53:00
12:53 PM,66.0,55.0,68,29.69,10.0,North,13.8,20.7,N/A,,Overcast,350,2012-10-01 17:53:00
1:53 PM,69.1,55.0,61,29.67,10.0,North,10.4,-,N/A,,Mostly Cloudy,350,2012-10-01 18:53:00
2:53 PM,71.1,54.0,55,29.68,10.0,North,12.7,-,N/A,,Mostly Cloudy,360,2012-10-01 19:53:00
3:53 PM,73.0,55.9,55,29.67,10.0,NNW,8.1,-,N/A,,Clear,330,2012-10-01 20:53:00
4:53 PM,73.4,55.4,53,29.68,10.0,NNE,5.8,-,N/A,,Clear,30,2012-10-01 21:53:00
5:53 PM,71.1,53.1,53,29.68,10.0,North,5.8,-,N/A,,Clear,350,2012-10-01 22:53:00
6:53 PM,66.0,53.1,63,29.70,10.0,NNW,4.6,-,N/A,,Clear,340,2012-10-01 23:53:00
7:53 PM,64.0,54.0,70,29.73,10.0,WNW,4.6,-,N/A,,Clear,290,2012-10-02 00:53:00
8:53 PM,63.0,53.1,70,29.75,10.0,NNW,4.6,-,N/A,,Clear,340,2012-10-02 01:53:00
9:53 PM,64.0,53.1,67,29.77,10.0,North,5.8,-,N/A,,Clear,10,2012-10-02 02:53:00
10:53 PM,63.0,53.1,70,29.78,10.0,North,4.6,-,N/A,,Clear,10,2012-10-02 03:53:00
11:53 PM,61.0,53.1,75,29.78,10.0,NNE,4.6,-,N/A,,Clear,20,2012-10-02 04:53:00